User: anonymous   Login
Location: Unspecified
(0.0000°N, 0.0000°E)
Time: 16:02:58
(UTC+00:00)
Language:

HODOYOSHI 4 - Orbit

View from above orbital plane
View from above orbital plane
View from above satellite
View from above satellite

Ground track
Ground track

The orbit data is extracted from the following two-line orbital elements,

1 40011U 14033B   21337.11243533  .00000295  00000-0  44012-4 0  9996
2 40011  97.7026 213.1358 0026988   2.9409 357.1967 14.81401202403029
Epoch (UTC): 03 December 2021 02:41:54
Eccentricity: 0.0026988
inclination: 97.7026°
perigee height: 606 km
apogee height: 644 km
right ascension of ascending node: 213.1358°
argument of perigee: 2.9409°
revolutions per day: 14.81401202
mean anomaly at epoch: 357.1967°
orbit number at epoch: 40302

The dashed part of the orbit path shows where the satellite is in the earth's shadow,  

DLR